nws-alerts: Checking more than four warning/county codes can delay the loading of your pages. You should use a cron job to get the data.
EllijayWeather Historical Data
Daily Summary for January 22, 2019 Units:  English    Metric   Both
Daily Weekly Monthly Yearly
  High: Low: Average:
Temperature: 41.0 °F 30.0 °F 35.3 °F
Dew Point: 20.0 °F 6.0 °F 12.8 °F
Humidity: 53% 30% 39%
Wind Speed: 10mph 0mph 4.1mph
Wind Gust: 17mph - -
Wind- - SE
Pressure: 30.6 in 30.5 in -
Precipitation: 0.000 in    
 
 
Tabular Data for January 22, 2019
Time Temperature Dew Point Pressure Wind Wind Speed Wind Gust Humidity Rainfall Rate (Hourly)
00:04 32.0 °F 17.0 °F 30.5 in Calm     53% 0.000 in
00:09 32.0 °F 15.0 °F 30.5 in SE 4 mph 4 mph 50% 0.000 in
00:14 32.0 °F 13.0 °F 30.5 in SE 1 mph 7 mph 45% 0.000 in
00:19 32.0 °F 12.0 °F 30.5 in SE 4 mph 5 mph 44% 0.000 in
00:24 32.0 °F 12.0 °F 30.5 in SE 2 mph 5 mph 43% 0.000 in
00:29 32.0 °F 12.0 °F 30.5 in Calm   4 mph 43% 0.000 in
00:34 32.0 °F 12.0 °F 30.5 in ESE 2 mph 6 mph 43% 0.000 in
00:39 33.0 °F 12.0 °F 30.5 in ESE 1 mph 6 mph 42% 0.000 in
00:44 33.0 °F 11.0 °F 30.5 in ESE 1 mph 6 mph 40% 0.000 in
00:49 33.0 °F 11.0 °F 30.5 in SE 5 mph 6 mph 40% 0.000 in
00:54 33.0 °F 11.0 °F 30.5 in SE 8 mph 8 mph 40% 0.000 in
00:59 33.0 °F 10.0 °F 30.5 in ESE 6 mph 7 mph 38% 0.000 in
01:04 33.0 °F 10.0 °F 30.5 in Calm   4 mph 38% 0.000 in
01:09 33.0 °F 10.0 °F 30.5 in SE 4 mph 5 mph 39% 0.000 in
01:14 33.0 °F 10.0 °F 30.5 in SE 1 mph 4 mph 39% 0.000 in
01:19 33.0 °F 10.0 °F 30.5 in Calm   1 mph 39% 0.000 in
01:24 33.0 °F 10.0 °F 30.5 in East 4 mph 6 mph 39% 0.000 in
01:29 33.0 °F 10.0 °F 30.5 in SE 4 mph 6 mph 38% 0.000 in
01:34 33.0 °F 9.0 °F 30.5 in SE 1 mph 5 mph 37% 0.000 in
01:39 33.0 °F 10.0 °F 30.5 in SE 4 mph 7 mph 39% 0.000 in
01:44 33.0 °F 10.0 °F 30.5 in SE 1 mph 4 mph 39% 0.000 in
01:49 33.0 °F 10.0 °F 30.5 in SE 1 mph 7 mph 39% 0.000 in
01:54 32.0 °F 10.0 °F 30.5 in SE 1 mph 7 mph 38% 0.000 in
01:59 32.0 °F 10.0 °F 30.5 in SE 4 mph 6 mph 38% 0.000 in
02:04 32.0 °F 10.0 °F 30.5 in Calm   4 mph 39% 0.000 in
02:09 32.0 °F 10.0 °F 30.5 in SE 4 mph 6 mph 38% 0.000 in
02:14 32.0 °F 11.0 °F 30.5 in SE 4 mph 6 mph 40% 0.000 in
02:19 32.0 °F 10.0 °F 30.5 in SE 5 mph 7 mph 38% 0.000 in
02:24 32.0 °F 10.0 °F 30.5 in SE 4 mph 5 mph 39% 0.000 in
02:29 32.0 °F 11.0 °F 30.5 in ESE 5 mph 6 mph 41% 0.000 in
02:34 32.0 °F 11.0 °F 30.5 in SE 4 mph 7 mph 41% 0.000 in
02:39 32.0 °F 10.0 °F 30.5 in SE 6 mph 8 mph 38% 0.000 in
02:44 32.0 °F 10.0 °F 30.5 in ESE 2 mph 6 mph 39% 0.000 in
02:49 32.0 °F 10.0 °F 30.5 in ESE 4 mph 7 mph 39% 0.000 in
02:54 32.0 °F 10.0 °F 30.5 in Calm   5 mph 39% 0.000 in
02:59 32.0 °F 10.0 °F 30.6 in ESE 6 mph 6 mph 39% 0.000 in
03:04 32.0 °F 10.0 °F 30.5 in SSE 4 mph 7 mph 39% 0.000 in
03:09 32.0 °F 10.0 °F 30.5 in SE 1 mph 5 mph 39% 0.000 in
03:14 32.0 °F 11.0 °F 30.5 in SE 6 mph 6 mph 41% 0.000 in
03:19 32.0 °F 10.0 °F 30.6 in SE 6 mph 7 mph 40% 0.000 in
03:24 32.0 °F 11.0 °F 30.6 in ESE 2 mph 2 mph 41% 0.000 in
03:29 32.0 °F 10.0 °F 30.6 in SE 6 mph 6 mph 40% 0.000 in
03:34 32.0 °F 11.0 °F 30.6 in SE 5 mph 6 mph 41% 0.000 in
03:39 32.0 °F 10.0 °F 30.6 in SE 2 mph 6 mph 39% 0.000 in
03:44 32.0 °F 10.0 °F 30.6 in SE 1 mph 6 mph 40% 0.000 in
03:49 32.0 °F 10.0 °F 30.6 in SE 4 mph 5 mph 41% 0.000 in
03:54 32.0 °F 10.0 °F 30.6 in Calm   5 mph 40% 0.000 in
03:59 32.0 °F 10.0 °F 30.6 in SE 2 mph 5 mph 41% 0.000 in
04:04 31.0 °F 9.0 °F 30.6 in ESE 4 mph 5 mph 39% 0.000 in
04:09 31.0 °F 9.0 °F 30.6 in SE 4 mph 5 mph 39% 0.000 in
04:14 31.0 °F 10.0 °F 30.6 in SE 4 mph 5 mph 40% 0.000 in
04:19 31.0 °F 10.0 °F 30.6 in SE 5 mph 7 mph 40% 0.000 in
04:24 31.0 °F 10.0 °F 30.6 in East 5 mph 5 mph 40% 0.000 in
04:29 31.0 °F 10.0 °F 30.6 in SE 4 mph 7 mph 40% 0.000 in
04:34 31.0 °F 9.0 °F 30.6 in SE 2 mph 5 mph 40% 0.000 in
04:39 31.0 °F 8.0 °F 30.6 in SE 1 mph 5 mph 38% 0.000 in
04:44 31.0 °F 9.0 °F 30.6 in SE 6 mph 6 mph 40% 0.000 in
04:49 31.0 °F 9.0 °F 30.6 in ESE 2 mph 6 mph 40% 0.000 in
04:54 31.0 °F 9.0 °F 30.6 in SE 4 mph 6 mph 40% 0.000 in
04:59 30.0 °F 9.0 °F 30.6 in SE 1 mph 6 mph 40% 0.000 in
05:04 30.0 °F 10.0 °F 30.6 in ESE 2 mph 2 mph 41% 0.000 in
05:09 30.0 °F 9.0 °F 30.6 in SE 5 mph 6 mph 40% 0.000 in
05:14 30.0 °F 8.0 °F 30.6 in SE 4 mph 9 mph 39% 0.000 in
05:19 30.0 °F 8.0 °F 30.6 in SE 2 mph 5 mph 39% 0.000 in
05:24 30.0 °F 9.0 °F 30.6 in SE 5 mph 6 mph 40% 0.000 in
05:29 30.0 °F 8.0 °F 30.6 in ESE 4 mph 6 mph 39% 0.000 in
05:34 30.0 °F 9.0 °F 30.6 in SE 7 mph 8 mph 41% 0.000 in
05:39 30.0 °F 8.0 °F 30.6 in SE 4 mph 8 mph 40% 0.000 in
05:44 30.0 °F 8.0 °F 30.6 in SE 5 mph 6 mph 40% 0.000 in
05:49 30.0 °F 9.0 °F 30.6 in ESE 5 mph 6 mph 41% 0.000 in
05:54 30.0 °F 10.0 °F 30.6 in SSE 4 mph 4 mph 42% 0.000 in
05:59 30.0 °F 9.0 °F 30.6 in SE 1 mph 4 mph 41% 0.000 in
06:04 30.0 °F 8.0 °F 30.6 in SE 2 mph 5 mph 40% 0.000 in
06:09 30.0 °F 8.0 °F 30.6 in East 2 mph 5 mph 40% 0.000 in
06:14 30.0 °F 8.0 °F 30.6 in ESE 4 mph 6 mph 40% 0.000 in
06:19 30.0 °F 8.0 °F 30.6 in SE 4 mph 7 mph 40% 0.000 in
06:24 30.0 °F 8.0 °F 30.6 in ESE 7 mph 7 mph 40% 0.000 in
06:29 30.0 °F 8.0 °F 30.6 in ESE 1 mph 8 mph 39% 0.000 in
06:34 30.0 °F 8.0 °F 30.6 in SSE 4 mph 8 mph 40% 0.000 in
06:39 30.0 °F 8.0 °F 30.6 in SE 5 mph 5 mph 39% 0.000 in
06:44 30.0 °F 8.0 °F 30.6 in SE 1 mph 5 mph 39% 0.000 in
06:49 30.0 °F 8.0 °F 30.6 in SE 7 mph 8 mph 39% 0.000 in
06:54 30.0 °F 8.0 °F 30.6 in SE 6 mph 11 mph 39% 0.000 in
06:59 30.0 °F 7.0 °F 30.6 in SE 7 mph 11 mph 38% 0.000 in
07:04 30.0 °F 7.0 °F 30.6 in SE 5 mph 9 mph 37% 0.000 in
07:09 30.0 °F 7.0 °F 30.6 in SE 4 mph 7 mph 37% 0.000 in
07:14 30.0 °F 7.0 °F 30.6 in SE 4 mph 4 mph 37% 0.000 in
07:19 30.0 °F 7.0 °F 30.6 in ESE 4 mph 7 mph 37% 0.000 in
07:24 30.0 °F 8.0 °F 30.6 in SE 8 mph 9 mph 38% 0.000 in
07:29 30.0 °F 6.0 °F 30.6 in ESE 7 mph 11 mph 36% 0.000 in
07:34 30.0 °F 6.0 °F 30.6 in SE 4 mph 5 mph 36% 0.000 in
07:39 30.0 °F 8.0 °F 30.6 in SSE 5 mph 11 mph 39% 0.000 in
07:44 30.0 °F 7.0 °F 30.6 in ESE 2 mph 11 mph 37% 0.000 in
07:49 30.0 °F 7.0 °F 30.6 in East 5 mph 5 mph 38% 0.000 in
07:54 30.0 °F 7.0 °F 30.6 in ESE 4 mph 6 mph 38% 0.000 in
07:59 30.0 °F 6.0 °F 30.6 in ESE 4 mph 5 mph 37% 0.000 in
08:04 30.0 °F 7.0 °F 30.6 in ESE 5 mph 6 mph 38% 0.000 in
08:09 30.0 °F 6.0 °F 30.6 in SE 6 mph 6 mph 37% 0.000 in
08:14 30.0 °F 6.0 °F 30.6 in SE 6 mph 6 mph 37% 0.000 in
08:19 30.0 °F 8.0 °F 30.6 in ESE 4 mph 7 mph 39% 0.000 in
08:24 30.0 °F 7.0 °F 30.6 in SSE 7 mph 8 mph 38% 0.000 in
08:29 30.0 °F 6.0 °F 30.6 in SE 5 mph 7 mph 37% 0.000 in
08:34 30.0 °F 6.0 °F 30.6 in SE 7 mph 9 mph 37% 0.000 in
08:39 30.0 °F 8.0 °F 30.6 in ESE 5 mph 8 mph 39% 0.000 in
08:44 30.0 °F 7.0 °F 30.6 in SE 6 mph 8 mph 37% 0.000 in
08:49 30.0 °F 7.0 °F 30.6 in SE 6 mph 6 mph 37% 0.000 in
08:54 30.0 °F 7.0 °F 30.6 in ESE 5 mph 8 mph 37% 0.000 in
08:59 30.0 °F 8.0 °F 30.6 in SE 5 mph 7 mph 38% 0.000 in
09:04 30.0 °F 8.0 °F 30.6 in SE 4 mph 7 mph 38% 0.000 in
09:09 31.0 °F 7.0 °F 30.6 in SE 4 mph 6 mph 37% 0.000 in
09:14 31.0 °F 7.0 °F 30.6 in SE 9 mph 9 mph 37% 0.000 in
09:19 31.0 °F 7.0 °F 30.6 in ESE 8 mph 8 mph 36% 0.000 in
09:24 31.0 °F 7.0 °F 30.6 in ESE 5 mph 8 mph 36% 0.000 in
09:29 31.0 °F 7.0 °F 30.6 in ESE 4 mph 7 mph 36% 0.000 in
09:34 32.0 °F 8.0 °F 30.6 in ESE 4 mph 5 mph 36% 0.000 in
09:39 32.0 °F 8.0 °F 30.6 in ESE 7 mph 10 mph 36% 0.000 in
09:44 32.0 °F 7.0 °F 30.6 in ESE 6 mph 8 mph 35% 0.000 in
09:49 32.0 °F 8.0 °F 30.6 in SE 4 mph 8 mph 35% 0.000 in
09:54 32.0 °F 7.0 °F 30.6 in SE 7 mph 8 mph 34% 0.000 in
09:59 33.0 °F 6.0 °F 30.6 in ESE 7 mph 12 mph 33% 0.000 in
10:04 33.0 °F 6.0 °F 30.6 in SE 8 mph 10 mph 32% 0.000 in
10:09 33.0 °F 7.0 °F 30.6 in SE 7 mph 17 mph 33% 0.000 in
10:14 33.0 °F 8.0 °F 30.6 in ESE 2 mph 7 mph 34% 0.000 in
10:19 34.0 °F 8.0 °F 30.6 in ESE 5 mph 6 mph 33% 0.000 in
10:24 34.0 °F 8.0 °F 30.6 in SE 6 mph 9 mph 33% 0.000 in
10:29 34.0 °F 8.0 °F 30.6 in ESE 5 mph 9 mph 34% 0.000 in
10:34 34.0 °F 7.0 °F 30.6 in SE 6 mph 9 mph 32% 0.000 in
10:39 34.0 °F 8.0 °F 30.6 in SE 7 mph 14 mph 33% 0.000 in
10:44 34.0 °F 7.0 °F 30.6 in ESE 6 mph 9 mph 32% 0.000 in
10:49 34.0 °F 7.0 °F 30.6 in ESE 7 mph 10 mph 32% 0.000 in
10:54 35.0 °F 8.0 °F 30.6 in SE 5 mph 10 mph 32% 0.000 in
10:59 35.0 °F 7.0 °F 30.6 in ESE 7 mph 8 mph 31% 0.000 in
11:04 35.0 °F 8.0 °F 30.6 in ESE 8 mph 8 mph 32% 0.000 in
11:09 35.0 °F 9.0 °F 30.6 in ESE 5 mph 8 mph 33% 0.000 in
11:14 36.0 °F 8.0 °F 30.6 in SE 4 mph 7 mph 31% 0.000 in
11:19 36.0 °F 7.0 °F 30.6 in SE 5 mph 7 mph 30% 0.000 in
11:24 36.0 °F 8.0 °F 30.6 in ESE 1 mph 2 mph 31% 0.000 in
11:29 36.0 °F 8.0 °F 30.6 in SE 5 mph 7 mph 30% 0.000 in
11:34 37.0 °F 10.0 °F 30.6 in SSE 1 mph 5 mph 32% 0.000 in
11:39 37.0 °F 10.0 °F 30.6 in ESE 4 mph 6 mph 32% 0.000 in
11:44 37.0 °F 8.0 °F 30.6 in SE 5 mph 7 mph 30% 0.000 in
11:49 37.0 °F 9.0 °F 30.6 in SE 8 mph 9 mph 31% 0.000 in
11:54 37.0 °F 10.0 °F 30.6 in SE 4 mph 9 mph 32% 0.000 in
11:59 37.0 °F 9.0 °F 30.6 in ESE 4 mph 6 mph 31% 0.000 in
12:04 37.0 °F 8.0 °F 30.6 in ESE 4 mph 6 mph 30% 0.000 in
12:09 37.0 °F 9.0 °F 30.6 in SE 10 mph 10 mph 31% 0.000 in
12:14 37.0 °F 10.0 °F 30.6 in SE 5 mph 8 mph 32% 0.000 in
12:19 37.0 °F 10.0 °F 30.6 in ESE 5 mph 9 mph 32% 0.000 in
12:24 37.0 °F 10.0 °F 30.6 in ESE 5 mph 7 mph 32% 0.000 in
12:29 37.0 °F 11.0 °F 30.6 in SSE 4 mph 7 mph 34% 0.000 in
12:34 37.0 °F 11.0 °F 30.6 in SE 2 mph 5 mph 33% 0.000 in
12:39 38.0 °F 12.0 °F 30.6 in SE 2 mph 5 mph 34% 0.000 in
12:44 38.0 °F 12.0 °F 30.6 in SE 2 mph 5 mph 34% 0.000 in
12:49 38.0 °F 12.0 °F 30.6 in ESE 2 mph 5 mph 34% 0.000 in
12:54 38.0 °F 12.0 °F 30.6 in ESE 6 mph 6 mph 34% 0.000 in
12:59 38.0 °F 12.0 °F 30.6 in SE 5 mph 8 mph 33% 0.000 in
13:04 38.0 °F 11.0 °F 30.6 in ESE 6 mph 8 mph 32% 0.000 in
13:09 38.0 °F 11.0 °F 30.6 in ESE 2 mph 5 mph 32% 0.000 in
13:14 39.0 °F 12.0 °F 30.6 in ESE 2 mph 6 mph 33% 0.000 in
13:19 39.0 °F 12.0 °F 30.6 in ESE 3 mph 7 mph 33% 0.000 in
13:24 39.0 °F 12.0 °F 30.6 in SE 4 mph 4 mph 33% 0.000 in
13:29 39.0 °F 11.0 °F 30.6 in SE 4 mph 4 mph 31% 0.000 in
13:34 39.0 °F 12.0 °F 30.5 in SSE 5 mph 7 mph 33% 0.000 in
13:39 39.0 °F 12.0 °F 30.5 in SE 1 mph 2 mph 32% 0.000 in
13:44 39.0 °F 13.0 °F 30.5 in SE 5 mph 5 mph 33% 0.000 in
13:49 40.0 °F 13.0 °F 30.5 in SE 2 mph 5 mph 33% 0.000 in
13:54 40.0 °F 15.0 °F 30.5 in SSE 1 mph 4 mph 36% 0.000 in
13:59 41.0 °F 14.0 °F 30.5 in ESE 4 mph 4 mph 34% 0.000 in
14:04 41.0 °F 14.0 °F 30.5 in SE 4 mph 8 mph 34% 0.000 in
14:09 40.0 °F 14.0 °F 30.5 in ESE 2 mph 4 mph 34% 0.000 in
14:14 41.0 °F 14.0 °F 30.5 in SE 5 mph 6 mph 34% 0.000 in
14:19 41.0 °F 16.0 °F 30.5 in SE 1 mph 7 mph 36% 0.000 in
14:24 41.0 °F 15.0 °F 30.5 in SE 2 mph 4 mph 35% 0.000 in
14:29 41.0 °F 17.0 °F 30.5 in SE 5 mph 5 mph 38% 0.000 in
14:34 41.0 °F 17.0 °F 30.5 in SE 5 mph 7 mph 38% 0.000 in
14:39 41.0 °F 15.0 °F 30.5 in East 4 mph 7 mph 35% 0.000 in
14:44 41.0 °F 16.0 °F 30.5 in SE 1 mph 5 mph 36% 0.000 in
14:49 41.0 °F 17.0 °F 30.5 in SE 2 mph 4 mph 38% 0.000 in
14:54 41.0 °F 18.0 °F 30.5 in SE 2 mph 5 mph 39% 0.000 in
14:59 41.0 °F 18.0 °F 30.5 in SE 4 mph 5 mph 39% 0.000 in
15:04 41.0 °F 17.0 °F 30.5 in ESE 5 mph 7 mph 38% 0.000 in
15:09 41.0 °F 18.0 °F 30.5 in ESE 4 mph 7 mph 39% 0.000 in
15:14 41.0 °F 18.0 °F 30.5 in SE 5 mph 6 mph 39% 0.000 in
15:19 41.0 °F 18.0 °F 30.5 in SE 5 mph 5 mph 40% 0.000 in
15:24 41.0 °F 18.0 °F 30.5 in SE 5 mph 7 mph 39% 0.000 in
15:29 41.0 °F 19.0 °F 30.5 in ESE 2 mph 8 mph 41% 0.000 in
15:34 41.0 °F 18.0 °F 30.5 in SE 2 mph 8 mph 40% 0.000 in
15:39 41.0 °F 19.0 °F 30.5 in ESE 6 mph 8 mph 41% 0.000 in
15:44 41.0 °F 19.0 °F 30.5 in SE 5 mph 6 mph 41% 0.000 in
15:49 41.0 °F 19.0 °F 30.5 in ESE 4 mph 6 mph 41% 0.000 in
15:54 40.0 °F 19.0 °F 30.5 in SE 4 mph 5 mph 42% 0.000 in
15:59 40.0 °F 18.0 °F 30.5 in SE 2 mph 5 mph 41% 0.000 in
16:04 40.0 °F 19.0 °F 30.5 in SE 4 mph 6 mph 42% 0.000 in
16:09 40.0 °F 18.0 °F 30.5 in ESE 5 mph 5 mph 40% 0.000 in
16:14 40.0 °F 17.0 °F 30.5 in ESE 1 mph 6 mph 40% 0.000 in
16:19 40.0 °F 17.0 °F 30.5 in SE 1 mph 5 mph 39% 0.000 in
16:24 40.0 °F 17.0 °F 30.5 in East 2 mph 4 mph 40% 0.000 in
16:29 40.0 °F 18.0 °F 30.5 in East 1 mph 4 mph 41% 0.000 in
16:34 40.0 °F 17.0 °F 30.5 in SE 5 mph 5 mph 40% 0.000 in
16:39 40.0 °F 18.0 °F 30.5 in East 2 mph 4 mph 41% 0.000 in
16:44 40.0 °F 18.0 °F 30.5 in SE 4 mph 9 mph 41% 0.000 in
16:49 39.0 °F 18.0 °F 30.5 in ESE 1 mph 5 mph 42% 0.000 in
16:54 39.0 °F 18.0 °F 30.5 in ESE 1 mph 4 mph 42% 0.000 in
16:59 39.0 °F 18.0 °F 30.5 in SE 1 mph 1 mph 42% 0.000 in
17:04 39.0 °F 18.0 °F 30.5 in ESE 4 mph 4 mph 42% 0.000 in
17:09 39.0 °F 17.0 °F 30.5 in SE 6 mph 9 mph 40% 0.000 in
17:14 39.0 °F 17.0 °F 30.5 in SE 4 mph 6 mph 40% 0.000 in
17:19 39.0 °F 17.0 °F 30.5 in ESE 2 mph 6 mph 41% 0.000 in
17:24 39.0 °F 17.0 °F 30.5 in ESE 2 mph 4 mph 41% 0.000 in
17:29 39.0 °F 17.0 °F 30.5 in ESE 1 mph 4 mph 41% 0.000 in
17:34 39.0 °F 17.0 °F 30.5 in ESE 1 mph 4 mph 41% 0.000 in
17:39 39.0 °F 17.0 °F 30.5 in Calm   2 mph 42% 0.000 in
17:44 39.0 °F 17.0 °F 30.5 in East 4 mph 6 mph 42% 0.000 in
17:49 39.0 °F 17.0 °F 30.5 in SE 2 mph 5 mph 42% 0.000 in
17:54 39.0 °F 18.0 °F 30.5 in Calm   4 mph 43% 0.000 in
17:59 38.0 °F 18.0 °F 30.5 in East 4 mph 6 mph 44% 0.000 in
18:04 38.0 °F 18.0 °F 30.5 in ESE 4 mph 6 mph 44% 0.000 in
18:09 38.0 °F 18.0 °F 30.5 in ESE 6 mph 7 mph 43% 0.000 in
18:14 38.0 °F 17.0 °F 30.5 in ESE 3 mph 9 mph 42% 0.000 in
18:19 38.0 °F 17.0 °F 30.5 in East 2 mph 4 mph 43% 0.000 in
18:24 38.0 °F 17.0 °F 30.5 in SE 8 mph 8 mph 43% 0.000 in
18:29 38.0 °F 18.0 °F 30.5 in East 6 mph 6 mph 44% 0.000 in
18:34 38.0 °F 17.0 °F 30.5 in ESE 1 mph 4 mph 43% 0.000 in
18:39 38.0 °F 18.0 °F 30.5 in ESE 4 mph 7 mph 44% 0.000 in
18:44 38.0 °F 18.0 °F 30.5 in ESE 2 mph 7 mph 44% 0.000 in
18:49 38.0 °F 18.0 °F 30.5 in SE 5 mph 8 mph 44% 0.000 in
18:54 38.0 °F 19.0 °F 30.5 in SE 7 mph 8 mph 45% 0.000 in
18:59 38.0 °F 18.0 °F 30.5 in ESE 4 mph 9 mph 44% 0.000 in
19:04 38.0 °F 17.0 °F 30.5 in SE 2 mph 9 mph 43% 0.000 in
19:09 38.0 °F 17.0 °F 30.5 in SE 7 mph 9 mph 43% 0.000 in
19:14 38.0 °F 18.0 °F 30.5 in SE 4 mph 6 mph 44% 0.000 in
19:19 38.0 °F 18.0 °F 30.5 in East 6 mph 10 mph 44% 0.000 in
19:24 38.0 °F 18.0 °F 30.5 in East 2 mph 6 mph 44% 0.000 in
19:29 38.0 °F 18.0 °F 30.5 in SE 4 mph 7 mph 44% 0.000 in
19:34 38.0 °F 19.0 °F 30.5 in SE 1 mph 7 mph 45% 0.000 in
19:39 38.0 °F 18.0 °F 30.5 in SE 2 mph 6 mph 45% 0.000 in
19:44 38.0 °F 18.0 °F 30.5 in SE 1 mph 4 mph 45% 0.000 in
19:49 38.0 °F 18.0 °F 30.5 in SE 7 mph 7 mph 45% 0.000 in
19:54 38.0 °F 18.0 °F 30.5 in ESE 1 mph 5 mph 45% 0.000 in
19:59 38.0 °F 19.0 °F 30.5 in SE 5 mph 6 mph 46% 0.000 in
20:04 38.0 °F 18.0 °F 30.5 in SE 2 mph 5 mph 45% 0.000 in
20:09 38.0 °F 18.0 °F 30.5 in ESE 2 mph 5 mph 44% 0.000 in
20:14 38.0 °F 18.0 °F 30.5 in SE 5 mph 7 mph 45% 0.000 in
20:19 38.0 °F 18.0 °F 30.5 in SE 5 mph 5 mph 45% 0.000 in
20:24 38.0 °F 18.0 °F 30.5 in ESE 5 mph 7 mph 45% 0.000 in
20:29 38.0 °F 18.0 °F 30.5 in SE 5 mph 8 mph 44% 0.000 in
20:34 38.0 °F 18.0 °F 30.5 in SE 6 mph 8 mph 44% 0.000 in
20:39 38.0 °F 18.0 °F 30.5 in ESE 4 mph 5 mph 44% 0.000 in
20:44 38.0 °F 18.0 °F 30.5 in ESE 6 mph 6 mph 44% 0.000 in
20:49 38.0 °F 18.0 °F 30.5 in ESE 5 mph 6 mph 44% 0.000 in
20:54 38.0 °F 18.0 °F 30.5 in SE 4 mph 8 mph 44% 0.000 in
20:59 38.0 °F 18.0 °F 30.5 in ESE 5 mph 6 mph 44% 0.000 in
21:04 38.0 °F 19.0 °F 30.5 in East 4 mph 6 mph 45% 0.000 in
21:09 38.0 °F 18.0 °F 30.5 in East 6 mph 8 mph 43% 0.000 in
21:14 38.0 °F 18.0 °F 30.5 in ESE 6 mph 6 mph 43% 0.000 in
21:19 38.0 °F 18.0 °F 30.5 in SE 4 mph 7 mph 44% 0.000 in
21:24 38.0 °F 17.0 °F 30.5 in SE 5 mph 7 mph 43% 0.000 in
21:29 38.0 °F 17.0 °F 30.5 in SE 5 mph 8 mph 43% 0.000 in
21:34 38.0 °F 17.0 °F 30.5 in ESE 5 mph 9 mph 43% 0.000 in
21:39 38.0 °F 17.0 °F 30.5 in SE 6 mph 6 mph 43% 0.000 in
21:44 38.0 °F 17.0 °F 30.5 in SE 8 mph 8 mph 42% 0.000 in
21:49 38.0 °F 17.0 °F 30.5 in SE 5 mph 7 mph 43% 0.000 in
21:54 38.0 °F 17.0 °F 30.5 in SE 7 mph 8 mph 43% 0.000 in
21:59 38.0 °F 17.0 °F 30.5 in ESE 4 mph 6 mph 43% 0.000 in
22:04 38.0 °F 17.0 °F 30.5 in SE 4 mph 6 mph 42% 0.000 in
22:09 38.0 °F 17.0 °F 30.5 in ESE 6 mph 8 mph 43% 0.000 in
22:14 38.0 °F 17.0 °F 30.5 in ESE 6 mph 9 mph 42% 0.000 in
22:19 38.0 °F 17.0 °F 30.5 in SE 5 mph 9 mph 42% 0.000 in
22:24 38.0 °F 17.0 °F 30.5 in SE 5 mph 8 mph 42% 0.000 in
22:29 38.0 °F 18.0 °F 30.5 in ESE 5 mph 7 mph 44% 0.000 in
22:34 38.0 °F 19.0 °F 30.5 in SE 5 mph 5 mph 45% 0.000 in
22:39 38.0 °F 18.0 °F 30.5 in ESE 9 mph 10 mph 44% 0.000 in
22:44 38.0 °F 18.0 °F 30.5 in SE 8 mph 8 mph 43% 0.000 in
22:49 38.0 °F 18.0 °F 30.5 in ESE 6 mph 8 mph 44% 0.000 in
22:54 38.0 °F 18.0 °F 30.5 in SE 7 mph 7 mph 43% 0.000 in
22:59 39.0 °F 18.0 °F 30.5 in SE 7 mph 8 mph 44% 0.000 in
23:04 39.0 °F 19.0 °F 30.5 in ESE 2 mph 6 mph 44% 0.000 in
23:09 39.0 °F 19.0 °F 30.5 in SE 8 mph 13 mph 44% 0.000 in
23:14 39.0 °F 20.0 °F 30.5 in SE 2 mph 6 mph 46% 0.000 in
23:19 39.0 °F 20.0 °F 30.5 in SE 8 mph 9 mph 46% 0.000 in
23:24 39.0 °F 20.0 °F 30.5 in SE 6 mph 9 mph 46% 0.000 in
23:29 39.0 °F 19.0 °F 30.5 in SE 6 mph 6 mph 45% 0.000 in
23:34 39.0 °F 19.0 °F 30.5 in ESE 4 mph 8 mph 45% 0.000 in
23:39 39.0 °F 20.0 °F 30.5 in ESE 6 mph 9 mph 46% 0.000 in
23:44 39.0 °F 20.0 °F 30.5 in SE 4 mph 5 mph 46% 0.000 in
23:49 39.0 °F 20.0 °F 30.5 in ESE 4 mph 6 mph 46% 0.000 in
23:54 39.0 °F 20.0 °F 30.5 in ESE 7 mph 10 mph 46% 0.000 in
23:59 39.0 °F 20.0 °F 30.5 in ESE 2 mph 8 mph 47% 0.000 in
East Ellijay Weather
Compliments of Weather Underground - 2 mb